N1OF Weather Reports


time (UTC)temp
F
wind
direction
speed
knots
gust
knots
rain 1hr
in
rain 24hr
in
rain mn
in
humidity
%
barometer
mb
20260503022027 41 141 0.0 0.0 0.00 0.00 0.00 72 1018.1
20260503021524 41 141 0.0 0.0 0.00 0.00 0.00 71 1017.9
20260503021021 41 141 0.0 0.0 0.00 0.00 0.00 71 1017.9
20260503020518 41 141 0.0 0.0 0.00 0.00 0.00 70 1017.8
20260503020015 42 141 0.0 0.0 0.00 0.00 0.00 69 1017.9
20260503015511 42 141 0.0 0.0 0.00 0.00 0.00 69 1017.9
20260503015008 42 141 0.0 0.0 0.00 0.00 0.00 68 1017.8
20260503014504 42 142 0.0 0.0 0.00 0.00 0.00 67 1017.9
20260503014003 42 142 0.0 0.0 0.00 0.00 0.00 65 1017.6
20260503013459 43 142 0.0 0.0 0.00 0.00 0.00 64 1017.9
20260503012956 43 142 0.0 0.0 0.00 0.00 0.00 62 1017.7
20260503012455 43 142 0.0 0.0 0.00 0.00 0.00 64 1017.6
20260503011950 43 142 0.0 0.0 0.00 0.00 0.00 64 1017.7
20260503011447 43 161 0.0 0.0 0.00 0.00 0.00 61 1017.9
20260503010944 43 161 0.0 0.0 0.00 0.00 0.00 59 1017.8
20260503010441 44 161 0.0 0.0 0.00 0.00 0.00 57 1017.8
20260503005938 44 161 0.0 0.0 0.00 0.00 0.00 57 1017.6
20260503005436 44 161 0.0 0.0 0.00 0.00 0.00 56 1017.6
20260503004932 44 190 0.0 0.0 0.00 0.00 0.00 55 1017.8
20260503004429 45 198 0.0 0.0 0.00 0.00 0.00 54 1017.8
20260503003927 45 251 0.0 0.0 0.00 0.00 0.00 51 1017.7
20260503003423 46 186 0.9 0.9 0.00 0.00 0.00 50 1017.8
20260503002921 46 208 0.0 0.9 0.00 0.00 0.00 49 1017.7
20260503002418 46 181 0.9 0.9 0.00 0.00 0.00 48 1017.7
20260503001914 46 327 0.0 0.9 0.00 0.00 0.00 46 1017.6
20260503001410 47 330 0.0 0.9 0.00 0.00 0.00 46 1017.5
20260503000908 47 319 0.9 1.7 0.00 0.00 0.00 46 1017.4
20260503000407 47 344 2.6 2.6 0.00 0.00 0.00 45 1017.4
20260502235902 47 296 1.7 2.6 0.00 0.00 0.00 44 1017.6
20260502235359 47 319 0.9 0.9 0.00 0.00 0.00 46 1017.5
20260502234856 48 275 1.7 3.5 0.00 0.00 0.00 44 1017.4
20260502234353 48 280 1.7 2.6 0.00 0.00 0.00 45 1017.6
20260502233849 47 40 0.0 0.0 0.00 0.00 0.00 48 1017.5
20260502233345 48 22 1.7 1.7 0.00 0.00 0.00 47 1017.5
20260502232843 47 308 0.0 0.0 0.00 0.00 0.00 47 1017.5
20260502232339 47 322 1.7 2.6 0.00 0.00 0.00 47 1017.6
20260502231835 47 327 2.6 3.5 0.00 0.00 0.00 46 1017.4
20260502231334 47 312 0.9 2.6 0.00 0.00 0.00 46 1017.6
20260502230831 47 341 0.9 1.7 0.00 0.00 0.00 43 1017.6
20260502230329 47 296 1.7 2.6 0.00 0.00 0.00 44 1017.6
20260502225826 47 298 2.6 2.6 0.00 0.00 0.00 45 1017.6
20260502225323 47 354 3.5 5.2 0.00 0.00 0.00 43 1017.6
20260502224820 47 295 3.5 5.2 0.00 0.00 0.00 44 1017.7
20260502224316 47 315 2.6 5.2 0.00 0.00 0.00 45 1017.7
20260502223814 47 330 3.5 5.2 0.00 0.00 0.00 44 1017.7
20260502223311 47 4 0.9 2.6 0.00 0.00 0.00 46 1017.8
20260502222809 47 318 2.6 3.5 0.00 0.00 0.00 46 1017.7
20260502222306 47 333 3.5 7.0 0.00 0.00 0.00 44 1017.8
20260502221801 47 319 1.7 5.2 0.00 0.00 0.00 44 1017.9
20260502221258 48 293 3.5 5.2 0.00 0.00 0.00 44 1017.7
20260502220755 48 294 5.2 7.8 0.00 0.00 0.00 43 1017.7
20260502220251 48 314 0.9 7.0 0.00 0.00 0.00 44 1017.7
20260502215747 48 291 4.3 7.0 0.00 0.00 0.00 44 1017.6
20260502215244 48 300 2.6 3.5 0.00 0.00 0.00 45 1017.6
20260502214742 47 274 1.7 7.0 0.00 0.00 0.00 44 1017.6
20260502214239 47 255 3.5 6.1 0.00 0.00 0.00 44 1017.5
20260502213736 47 298 1.7 2.6 0.00 0.00 0.00 45 1017.7
20260502213233 47 293 2.6 6.1 0.00 0.00 0.00 45 1017.6
20260502212732 48 300 3.5 5.2 0.00 0.00 0.00 44 1017.5
20260502212229 48 8 2.6 5.2 0.00 0.00 0.00 45 1017.6
20260502211725 48 354 3.5 6.1 0.00 0.00 0.00 44 1017.6
20260502211222 48 280 2.6 3.5 0.00 0.00 0.00 43 1017.5
20260502210719 48 308 2.6 7.0 0.00 0.00 0.00 44 1017.7
20260502210217 48 308 3.5 5.2 0.00 0.00 0.00 45 1017.6
20260502205714 47 313 3.5 6.1 0.00 0.00 0.00 45 1017.6
20260502205210 48 314 1.7 2.6 0.00 0.00 0.00 45 1017.6
20260502204707 47 319 1.7 3.5 0.00 0.00 0.00 45 1017.6
20260502204205 47 301 0.9 3.5 0.00 0.00 0.00 47 1017.5
20260502203702 47 291 1.7 7.0 0.00 0.00 0.00 46 1017.6
20260502203201 48 348 2.6 3.5 0.00 0.00 0.00 47 1017.9
20260502202654 48 270 3.5 8.7 0.00 0.00 0.00 48 1017.8
20260502202152 47 345 0.9 1.7 0.00 0.00 0.00 50 1017.7
20260502201649 47 296 6.1 7.8 0.00 0.00 0.00 47 1017.9
20260502201146 47 300 4.3 6.1 0.00 0.00 0.00 47 1017.7
20260502200641 48 316 1.7 3.5 0.00 0.00 0.00 47 1017.8
20260502200138 48 323 3.5 3.5 0.00 0.00 0.00 46 1017.9
20260502195637 48 317 3.5 7.0 0.00 0.00 0.00 45 1017.8
20260502195133 48 224 1.7 3.5 0.00 0.00 0.00 47 1017.9
20260502194630 47 302 1.7 3.5 0.00 0.00 0.00 48 1018.2
20260502194126 47 332 2.6 2.6 0.00 0.00 0.00 48 1018.1
20260502193623 47 31 3.5 5.2 0.00 0.00 0.00 48 1018.2
20260502193120 47 335 2.6 6.1 0.00 0.00 0.00 48 1018.2
20260502192615 47 352 1.7 2.6 0.00 0.00 0.00 48 1018.2
20260502192113 47 289 4.3 6.1 0.00 0.00 0.00 47 1018.3
20260502191609 47 220 4.3 5.2 0.00 0.00 0.00 47 1018.2
20260502191107 47 288 3.5 7.0 0.00 0.00 0.00 46 1018.2
20260502190605 48 280 5.2 8.7 0.00 0.00 0.00 45 1018.4
20260502185556 48 323 3.5 6.1 0.00 0.00 0.00 46 1018.3
20260502185054 47 261 3.5 8.7 0.00 0.00 0.00 47 1018.5
20260502184549 47 317 1.7 3.5 0.00 0.00 0.00 47 1018.4
20260502184045 47 316 2.6 2.6 0.00 0.00 0.00 48 1018.2
20260502183542 47 313 3.5 6.1 0.00 0.00 0.00 44 1018.3
20260502183038 48 30 3.5 5.2 0.00 0.00 0.00 44 1018.4
20260502182533 49 310 0.9 3.5 0.00 0.00 0.00 45 1018.3
20260502182029 47 270 2.6 5.2 0.00 0.00 0.00 46 1018.4
20260502181527 47 30 2.6 3.5 0.00 0.00 0.00 46 1018.4
20260502181026 47 339 7.8 8.7 0.00 0.00 0.00 44 1018.6
20260502180523 47 38 5.2 7.0 0.00 0.00 0.00 47 1018.5
20260502170442 46 289 2.6 5.2 0.00 0.00 0.00 51 1018.9
20260502163925 45 296 3.5 5.2 0.00 0.00 0.00 51 1019.2
20260502163421 45 323 4.3 6.1 0.00 0.00 0.00 51 1019.1
20260502162919 45 301 1.7 5.2 0.00 0.00 0.00 54 1019.0
20260502162416 46 282 4.3 6.1 0.00 0.00 0.00 53 1019.1
20260502161913 45 287 1.7 2.6 0.00 0.00 0.00 52 1019.2
20260502161409 45 352 5.2 8.7 0.00 0.00 0.00 51 1019.2
20260502160907 45 300 1.7 3.5 0.00 0.00 0.00 54 1019.3
20260502160405 45 357 2.6 5.2 0.00 0.00 0.00 55 1019.0
20260502151843 46 223 0.9 2.6 0.00 0.00 0.00 55 1018.9
20260502151339 45 45 3.5 3.5 0.00 0.00 0.00 57 1019.0
20260502150837 44 327 3.5 3.5 0.00 0.00 0.00 57 1019.1
20260502150333 45 312 2.6 5.2 0.00 0.00 0.00 56 1019.0
20260502130722 41 302 1.7 2.6 0.00 0.00 0.00 74 1018.5
20260502130219 41 356 0.9 2.6 0.00 0.00 0.00 74 1018.4
20260502123706 40 299 1.7 1.7 0.00 0.00 0.00 75 1018.1
20260502123202 39 12 0.9 1.7 0.00 0.00 0.00 76 1018.3
20260502122658 39 324 1.7 2.6 0.00 0.00 0.00 75 1018.3
20260502122155 38 349 1.7 3.5 0.00 0.00 0.00 76 1018.3
20260502121653 39 334 1.7 2.6 0.00 0.00 0.00 76 1018.4
20260502121151 38 318 2.6 2.6 0.00 0.00 0.00 76 1018.3
20260502120647 38 335 0.9 1.7 0.00 0.00 0.00 77 1018.5
20260502120144 37 327 0.9 2.6 0.00 0.00 0.00 77 1018.3
20260502115642 37 270 1.7 2.6 0.00 0.00 0.00 77 1018.6
20260502115138 37 292 0.9 1.7 0.00 0.00 0.00 78 1018.4
20260502114633 37 264 1.7 2.6 0.00 0.00 0.00 78 1018.4
20260502110533 34 327 0.9 0.9 0.00 0.00 0.00 84 1017.8
20260502110031 34 327 0.9 0.9 0.00 0.00 0.00 84 1017.8
20260502105527 34 333 0.0 1.7 0.00 0.00 0.00 84 1017.9
20260502105025 34 311 0.9 0.9 0.00 0.00 0.00 84 1018.0
20260502104522 34 315 0.9 1.7 0.00 0.00 0.00 83 1017.8
20260502104020 34 306 0.9 1.7 0.00 0.00 0.00 83 1017.7
20260502103517 34 287 1.7 1.7 0.00 0.00 0.00 83 1017.8
20260502103015 34 300 0.9 1.7 0.00 0.00 0.00 82 1017.8
20260502102511 34 322 1.7 2.6 0.00 0.00 0.00 82 1017.7
20260502102008 34 323 0.9 3.5 0.00 0.00 0.00 81 1017.9
20260502101506 34 307 0.9 2.6 0.00 0.00 0.00 81 1017.8
20260502101004 34 297 0.9 1.7 0.00 0.00 0.00 81 1017.7
20260502100503 34 312 1.7 3.5 0.00 0.00 0.00 81 1017.7
20260502091437 35 296 0.9 1.7 0.00 0.00 0.00 79 1017.4
20260502090934 35 316 0.9 1.7 0.00 0.00 0.00 78 1017.4
20260502090431 35 295 0.9 1.7 0.00 0.00 0.00 78 1017.4
20260502071320 37 301 1.7 1.7 0.00 0.00 0.00 76 1017.2
20260502070819 37 278 2.6 3.5 0.00 0.00 0.00 76 1017.3
20260502070316 37 285 0.9 5.2 0.00 0.00 0.00 75 1017.4
20260502065815 37 282 1.7 1.7 0.00 0.00 0.00 75 1017.3
20260502065313 37 300 0.9 0.9 0.00 0.00 0.00 75 1017.3
20260502064810 37 297 0.9 1.7 0.00 0.00 0.00 74 1017.5
20260502064308 38 299 2.6 2.6 0.00 0.00 0.00 74 1017.5
20260502063805 38 283 1.7 1.7 0.00 0.00 0.00 73 1017.6
20260502063303 38 304 0.9 2.6 0.00 0.00 0.00 73 1017.3
20260502062800 38 312 0.9 1.7 0.00 0.00 0.00 73 1017.4
20260502062257 38 312 0.9 0.9 0.00 0.00 0.00 72 1017.4
20260502061756 38 311 0.9 5.2 0.00 0.00 0.00 72 1017.4
20260502061254 38 323 2.6 5.2 0.00 0.00 0.00 71 1017.6
20260502060754 39 284 0.9 2.6 0.00 0.00 0.00 71 1017.4
20260502060249 39 320 0.9 1.7 0.00 0.00 0.00 71 1017.4
20260502055748 39 303 1.7 2.6 0.00 0.00 0.00 70 1017.6
20260502055245 39 333 3.5 6.1 0.00 0.00 0.00 70 1017.4
20260502054744 39 277 2.6 2.6 0.00 0.00 0.00 70 1017.4
20260502054241 39 314 0.9 3.5 0.00 0.00 0.00 69 1017.6
20260502053739 39 291 1.7 3.5 0.00 0.00 0.00 69 1017.6
20260502053236 40 303 1.7 2.6 0.00 0.00 0.00 69 1017.4
20260502052734 40 261 2.6 3.5 0.00 0.00 0.00 68 1017.6
20260502052231 40 282 0.9 3.5 0.00 0.00 0.00 67 1017.5
20260502051729 40 299 0.9 1.7 0.00 0.00 0.00 67 1017.3
20260502051227 40 302 1.7 3.5 0.00 0.00 0.00 67 1017.4
20260502050723 40 308 1.7 3.5 0.00 0.00 0.00 68 1017.5
20260502050220 40 304 1.7 6.1 0.00 0.00 0.00 67 1017.4
20260502045717 40 226 2.6 3.5 0.00 0.00 0.00 68 1017.3
20260502045214 40 286 3.5 6.1 0.00 0.00 0.00 68 1017.5
20260502044710 40 311 0.9 2.6 0.00 0.00 0.00 68 1017.4
20260502044207 40 299 1.7 6.1 0.00 0.00 0.00 68 1017.7
20260502043704 40 306 0.9 1.7 0.00 0.00 0.00 70 1017.8
20260502043202 41 274 2.6 3.5 0.00 0.00 0.00 69 1017.8
20260502042701 41 289 1.7 3.5 0.00 0.00 0.00 70 1017.6
20260502042159 41 348 0.9 1.7 0.00 0.00 0.00 72 1017.9
20260502041656 41 292 1.7 1.7 0.00 0.00 0.00 74 1017.9
20260502041153 41 256 1.7 1.7 0.00 0.00 0.00 76 1017.8
20260502040650 41 311 0.0 0.9 0.00 0.00 0.00 75 1017.7
20260502040147 41 298 0.9 1.7 0.00 0.00 0.00 77 1017.7
20260502035643 41 291 1.7 2.6 0.00 0.31 0.31 80 1017.7
20260502035140 40 262 0.0 0.0 0.00 0.31 0.31 86 1017.6
20260502034638 40 286 0.0 0.0 0.00 0.31 0.31 86 1017.7
20260502034136 40 324 0.0 0.0 0.00 0.31 0.31 86 1017.5
20260502033633 41 324 0.0 0.0 0.00 0.31 0.31 86 1017.3
20260502033131 41 280 0.0 0.0 0.00 0.31 0.31 85 1017.6
20260502032627 41 260 0.0 0.0 0.00 0.31 0.31 85 1017.6
20260502032123 41 284 0.0 0.0 0.00 0.31 0.31 84 1017.5
20260502031622 42 295 0.0 1.7 0.00 0.31 0.31 84 1017.5
20260502031119 42 274 0.0 0.0 0.00 0.31 0.31 84 1017.4
20260502030618 42 274 0.0 0.9 0.00 0.31 0.31 84 1017.4
20260502030116 42 283 0.0 0.9 0.00 0.31 0.31 84 1017.4
20260502025612 42 283 0.0 0.0 0.00 0.31 0.31 84 1017.2
20260502025110 42 338 0.0 0.0 0.00 0.31 0.31 86 1017.5
20260502024608 42 338 0.0 0.0 0.00 0.31 0.31 87 1017.3
20260502024106 41 338 0.0 0.0 0.00 0.31 0.31 88 1017.4
20260502023604 41 341 0.0 0.0 0.00 0.31 0.31 89 1017.4
20260502023100 41 341 0.0 0.0 0.00 0.31 0.31 89 1017.2
20260502022557 40 341 0.0 0.0 0.00 0.31 0.31 89 1017.1